Back to catalog

DIWEI ZHINENG YINGJI 1

AliveScienceSSO
NORAD 57582·PAYLOAD·🇨🇳 China
This satellite name has not been confirmed by official sources yet.

Launched Aug 10, 2023 from Jiuquan Satellite Launch Center

Loading…

Next Passes (next 24 hours)

TLE

FreshSource: Space-Track

Epoch: Sep 14, 2026, 13:19 UTC

1 57582U 23117C   26257.55506742  .00019616  00000-0  42666-3 0  9997
2 57582  97.4007 339.9720 0004763 268.0446  92.0257 15.44346020172340

Track DIWEI ZHINENG YINGJI 1 in real time with AllMySat

Download on the App Store